Mount Carmel, IL

12:44 PM CST on December 15, 2019 (GMT -0600)
Mount Carmel Municipal

Weather History for KAJG - October, 2019

Change the Weather History Date:

Monday, October 28, 2019

  Actual Average (KLWV) Record (KLWV)
Temperature  
Mean Temperature 50 °F 54 °F  
Max Temperature 58 °F 65 °F 80 °F (1999)
Min Temperature 43 °F 43 °F 26 °F (2001)
Degree Days  
Heating Degree Days 14 12  
Month to date heating degree days 221  
Since 1 July heating degree days 260  
Cooling Degree Days 0 0  
Month to date cooling degree days 31  
Year to date cooling degree days 1385  
Moisture  
Dew Point 50 °F    
Average Humidity 90    
Maximum Humidity 98    
Minimum Humidity 77    
Precipitation  
Precipitation 0.00 in 0.11 in 0.61 in (1980)
Month to date precipitation 3.74  
Year to date precipitation 36.28  
Sea Level Pressure  
Sea Level Pressure 30.07 in    
Wind  
Wind Speed 7 mph (South)    
Max Wind Speed 10 mph    
Max Gust Speed -    
Visibility 7 miles    
Events Fog    
T = Trace of Precipitation, MM = Missing Value Source: NWS Daily Summary

Daily Weather History Graph

Daily Weather History Graph

Search for Another Location

Airport or City:

Astronomy

Oct. 28, 2019 Rise Set
Actual Time 7:13 AM CDT 5:55 PM CDT
Civil Twilight 6:45 AM CDT 6:22 PM CDT
Nautical Twilight 6:14 AM CDT 6:54 PM CDT
Astronomical Twilight 5:43 AM CDT 7:24 PM CDT
Moon 7:34 AM CDT (10/28) 6:40 PM CDT (10/28)
Length of Visible Light 11h 37m
Length of Day
10h 42m
New Moon, 0% of the Moon is Illuminated
Oct 28
New Moon
Nov 4
First Quarter
Nov 12
Full
Nov 19
Last Quarter
Nov 26
New

Hourly Weather History & Observations

Time (CDT) Temp. Dew Point Humidity Pressure Visibility Wind Dir Wind Speed Gust Speed Precip Events Conditions
12:15 AM 45.5 °F 44.2 °F 95% 30.05 in 1.0 mi North - - N/A   Mist
12:35 AM 45.5 °F 44.4 °F 96% 30.05 in 4.0 mi North - - N/A   Clear
12:55 AM 46.2 °F 45.3 °F 97% 30.05 in 5.0 mi North - - N/A   Clear
1:15 AM 45.3 °F 44.4 °F 97% 30.06 in 4.0 mi North - - N/A   Clear
1:35 AM 43.3 °F 42.4 °F 97% 30.06 in 4.0 mi North - - N/A   Clear
1:55 AM 44.8 °F 43.9 °F 97% 30.06 in 10.0 mi North - - N/A   Clear
2:35 AM 45.7 °F 44.1 °F 94% 30.06 in 10.0 mi North - - N/A   Clear
2:55 AM 44.2 °F 43.0 °F 95% 30.06 in 7.0 mi North - - N/A   Clear
3:15 AM 45.1 °F 44.2 °F 97% 30.06 in 7.0 mi North - - N/A   Mostly Cloudy
3:35 AM 50.0 °F 49.3 °F 97% 30.06 in 5.0 mi North - - N/A   Overcast
3:55 AM 50.2 °F 49.5 °F 97% 30.06 in 2.0 mi SW 6.9 mph - N/A   Overcast
4:15 AM 50.2 °F 49.5 °F 97% 30.06 in 0.5 mi North - - N/A Fog Fog
4:35 AM 50.4 °F 49.6 °F 97% 30.06 in 0.5 mi North - - N/A Fog Fog
4:55 AM 50.0 °F 49.3 °F 97% 30.06 in 0.5 mi SW 8.1 mph - N/A Fog Fog
5:15 AM 50.5 °F 49.8 °F 97% 30.07 in 0.5 mi North - - N/A Fog Fog
5:35 AM 50.9 °F 50.0 °F 97% 30.08 in 0.5 mi North - - N/A Fog Fog
5:55 AM 50.9 °F 50.2 °F 97% 30.08 in 0.5 mi North - - N/A Fog Fog
6:15 AM 51.3 °F 50.5 °F 97% 30.08 in 0.8 mi North - - N/A   Overcast
6:55 AM 51.6 °F 50.9 °F 97% 30.09 in 2.5 mi North - - N/A   Overcast
7:15 AM 51.8 °F 51.1 °F 97% 30.09 in 3.0 mi North - - N/A   Overcast
7:35 AM 52.0 °F 51.3 °F 97% 30.09 in 2.5 mi North - - N/A   Overcast
7:55 AM 52.2 °F 51.6 °F 98% 30.09 in 1.8 mi North - - N/A   Overcast
8:15 AM 52.3 °F 51.8 °F 98% 30.10 in 1.8 mi North - - N/A   Overcast
8:35 AM 52.7 °F 52.0 °F 97% 30.10 in 1.5 mi North - - N/A   Overcast
8:55 AM 52.9 °F 52.2 °F 97% 30.10 in 1.5 mi North - - N/A   Overcast
9:15 AM 53.1 °F 52.5 °F 98% 30.10 in 1.8 mi South 5.8 mph - N/A   Overcast
9:35 AM 53.6 °F 52.5 °F 96% 30.10 in 4.0 mi North - - N/A   Overcast
9:55 AM 53.6 °F 52.5 °F 96% 30.10 in 2.0 mi South 5.8 mph - N/A   Overcast
10:15 AM 53.8 °F 52.5 °F 95% 30.10 in 3.0 mi North - - N/A   Overcast
10:35 AM 54.1 °F 52.5 °F 94% 30.11 in 4.0 mi South 6.9 mph - N/A   Overcast
10:55 AM 54.7 °F 52.7 °F 93% 30.10 in 7.0 mi South 6.9 mph - N/A   Overcast
11:15 AM 55.2 °F 52.0 °F 89% 30.10 in 10.0 mi SSW 8.1 mph - N/A   Overcast
11:35 AM 54.9 °F 52.2 °F 91% 30.10 in 7.0 mi SSW 8.1 mph - N/A   Overcast
11:55 AM 54.5 °F 51.8 °F 91% 30.09 in 7.0 mi North - - N/A   Overcast
12:15 PM 55.6 °F 52.0 °F 88% 30.08 in 10.0 mi South 5.8 mph - N/A   Overcast
12:35 PM 55.9 °F 51.8 °F 86% 30.07 in 10.0 mi North - - N/A   Overcast
12:55 PM 56.3 °F 51.6 °F 84% 30.07 in 10.0 mi North - - N/A   Overcast
1:15 PM 56.3 °F 51.4 °F 84% 30.06 in 10.0 mi SW 8.1 mph - N/A   Overcast
1:35 PM 57.6 °F 51.6 °F 81% 30.06 in 10.0 mi South 4.6 mph - N/A   Overcast
1:55 PM 58.1 °F 51.1 °F 77% 30.06 in 10.0 mi SSW 8.1 mph - N/A   Overcast
2:15 PM 57.9 °F 51.3 °F 78% 30.05 in 10.0 mi South 10.4 mph - N/A   Overcast
2:35 PM 57.7 °F 50.9 °F 78% 30.05 in 10.0 mi South 8.1 mph - N/A   Overcast
2:55 PM 57.2 °F 51.1 °F 80% 30.06 in 10.0 mi SSW 9.2 mph - N/A   Overcast
3:15 PM 56.8 °F 51.3 °F 82% 30.05 in 7.0 mi SW 6.9 mph - N/A   Overcast
3:35 PM 57.2 °F 50.9 °F 79% 30.05 in 10.0 mi North - - N/A   Overcast
3:55 PM 57.2 °F 51.1 °F 80% 30.05 in 10.0 mi North - - N/A   Overcast
4:15 PM 57.4 °F 50.9 °F 79% 30.05 in 10.0 mi South 5.8 mph - N/A   Overcast
4:35 PM 57.6 °F 51.3 °F 79% 30.05 in 10.0 mi South 5.8 mph - N/A   Overcast
4:55 PM 57.4 °F 50.5 °F 78% 30.05 in 10.0 mi North - - N/A   Overcast
5:15 PM 57.2 °F 50.5 °F 78% 30.05 in 10.0 mi North - - N/A   Overcast
5:35 PM 57.2 °F 51.1 °F 80% 30.06 in 10.0 mi North - - N/A   Overcast
5:55 PM 56.8 °F 50.9 °F 80% 30.06 in 10.0 mi North - - N/A   Overcast
6:15 PM 56.5 °F 51.3 °F 83% 30.06 in 10.0 mi North - - N/A   Overcast
6:35 PM 56.5 °F 52.0 °F 85% 30.06 in 10.0 mi North - - N/A   Overcast
6:55 PM 56.3 °F 51.8 °F 85% 30.05 in 10.0 mi North - - N/A   Overcast
7:15 PM 55.6 °F 52.0 °F 88% 30.06 in 10.0 mi North - - N/A   Overcast
7:35 PM 55.4 °F 51.8 °F 88% 30.05 in 10.0 mi SE 3.5 mph - N/A   Overcast
7:55 PM 55.4 °F 52.0 °F 88% 30.05 in 10.0 mi North - - N/A   Overcast
8:15 PM 55.4 °F 51.8 °F 88% 30.05 in 10.0 mi North - - N/A   Overcast
8:35 PM 55.4 °F 52.0 °F 88% 30.06 in 10.0 mi North - - N/A   Overcast
8:55 PM 55.0 °F 52.2 °F 90% 30.05 in 10.0 mi North - - N/A   Overcast
9:15 PM 54.9 °F 52.2 °F 91% 30.05 in 10.0 mi North - - N/A   Overcast
9:30 PM 55.2 °F 52.2 °F 89% 30.05 in 10.0 mi North - - N/A   Overcast
9:55 PM 54.9 °F 51.8 °F 89% 30.05 in 10.0 mi SE 6.9 mph - N/A   Overcast
10:15 PM 55.0 °F 51.8 °F 89% 30.04 in 10.0 mi SSE 5.8 mph - N/A   Overcast
10:35 PM 55.4 °F 51.3 °F 86% 30.05 in 10.0 mi South 4.6 mph - N/A   Overcast
10:55 PM 55.4 °F 51.4 °F 87% 30.05 in 10.0 mi North - - N/A   Overcast
11:15 PM 55.4 °F 51.6 °F 87% 30.06 in 10.0 mi North - - N/A   Overcast
11:35 PM 55.4 °F 51.8 °F 88% 30.05 in 10.0 mi North - - N/A   Overcast
11:55 PM 55.4 °F 51.8 °F 88% 30.05 in 10.0 mi North - - N/A   Overcast